Torna al catalogo

NOAA 17 DEB

AttivoPO
NORAD 48719·DEBRIS·🇺🇸 United States

Lanciato Jun 24, 2002 da Vandenberg Space Force Base

Loading…

Prossimi Passaggi (prossime 24 ore)

TLE

AggiornatoSource: Space-Track

Epoca: Sep 14, 2026, 03:05 UTC

1 48719U 02032BC  26257.12858397  .00000375  00000-0  35765-3 0  9995
2 48719  98.3942 317.9196 0320367 263.7804  92.6765 13.65323470273510

Traccia NOAA 17 DEB in tempo reale con AllMySat

Download on the App Store